sat.trackr.live / text

‹ back to catalog

STARLINK-37976

NORAD 69697 · 2026-145W

PAYLOAD ACTIVE UNKNOWN

§ Identity

Operator
Country
US
Launch date
2026-06-25
Launch site
AFWTR
Launch vehicle
Mass (kg)
RCS (m²)

Purposes: comms

External: N2YO · Heavens-Above · Gunter

§ Orbital elements

Epoch: 2026-09-20T00:28:40.395072Z

Period
93.91 min
Inclination
97.2851°
Eccentricity
0.0001674
Mean motion
15.33437384 rev/d
Perigee alt
464.4 km
Apogee alt
466.7 km
Semi-major
6,843.7 km
B*
3.2104e-4
RAAN
109.7551°
Arg perigee
86.1052°
Mean anomaly
274.0382°
Rev number
1,347

§ Raw data

STARLINK-379761 69697U 26145W   26263.01991198  .00010301  00000+0  32104-3 0  99992 69697  97.2851 109.7551 0001674  86.1052 274.0382 15.33437384 13471

JSON: /api/v1/satellites/69697 · /tle

For live sub-satellite position, see the globe view (requires WebGL).

§ Visibility from observer

Set your observer location to see the next 7 days of passes ≥ 10°. The values pass through the URL so the page stays shareable.

No JS? Fill the form by hand. The geolocation button needs JavaScript.